{"data":{"norad_id":52366,"epoch":"2026-09-20T01:13:14.000736Z","epoch_age_seconds":98471,"freshness":"FRESH","line1":"1 52366U 22045AM  26263.05085649  .00002697  00000+0  90905-4 0  9991","line2":"2 52366  53.1611  27.4703 0000838  97.4320 262.6778 15.34401175245389","mean_motion":15.34401175,"eccentricity":8.38e-5,"inclination_deg":53.1611,"raan_deg":27.4703,"arg_perigee_deg":97.432,"mean_anomaly_deg":262.6778,"bstar":9.0905e-5,"rev_number":24538,"period_min":93.847686215438,"perigee_km":462.12648574224,"apogee_km":463.27300998118,"semimajor_km":6840.8367478617,"source":"CELESTRAK","updated_at":"2026-09-20T09:00:40.027707Z"}}